Вернуться в каталог

KUIPER-00038

АктивенСвязьLEO
NORAD 63750·PAYLOAD·🇺🇸 United States

Запущен Apr 28, 2025 с Cape Canaveral Space Force Station

Loading…

Ближайшие Пролёты (ближайшие 24 часа)

TLE

СвежийSource: CelesTrak SupGP

Эпоха: Sep 15, 2026, 02:58 UTC

1 63750C 25088AC  26258.12373843  .00004489  00000+0  58772-3 0  2582
2 63750  51.9022 340.4458 0000577  96.9146 142.1477 14.79920925    19

Отслеживайте KUIPER-00038 в реальном времени с AllMySat

Download on the App Store